Probability
48 74 90 94 90 84 87 90 90 90 90 94 94 94 94 94 94 87 94 94 94 90 90 90 90 81 81 87 90 87 87 84 84 81 77 77 84 84 84 87 77 65 90
58 81 90 90 90 90 90 94 94 94 94 97 97 97 97 94 94 94 94 94 94 94 94 94 90 94 87 84 87 90 94 97 87 87 84 84 84 90 90 81 77 65 90
71 74 84 90 90 90 90 90 94 94 94 94 94 94 94 97 100 100 97 94 94 84 87 84 87 90 87 90 90 90 90 94 90 77 55 32 61 94 94 90 87 84 84
61 65 84 90 90 94 94 90 97 94 94 94 94 94 90 94 97 100 100 100 97 94 94 90 77 87 84 81 74 77 74 81 77 58 3 13 39 84 90 90 90 81 77
58 68 84 94 90 90 90 94 97 97 97 97 97 97 94 94 94 97 97 97 97 87 87 81 74 77 74 74 74 74 74 71 65 35 3 6 26 87 81 84 81 77 71
61 74 90 94 94 94 94 94 97 97 97 97 97 94 94 94 90 90 90 87 87 90 87 77 77 65 65 55 58 68 65 65 23 6 6 6 19 84 74 71 71 71 61
58 71 81 90 94 94 94 94 97 97 97 97 97 94 94 90 84 84 81 81 84 87 81 81 65 65 45 45 45 55 58 58 6 3 6 13 45 87 74 71 77 77 65
65 71 84 94 90 90 90 94 94 97 97 97 94 94 94 94 90 87 84 84 84 87 77 74 61 52 45 52 55 68 74 65 19 6 6 16 77 94 68 58 55 55 48
68 71 71 81 87 90 90 94 94 94 94 97 94 94 90 90 90 90 90 84 77 84 68 61 48 48 48 61 58 61 77 68 0 0 6 19 94 87 71 65 58 52 48
65 71 74 74 77 84 84 90 90 90 94 94 90 90 90 87 87 87 94 87 71 65 48 55 55 52 58 65 61 71 74 35 13 6 10 32 81 77 52 55 55 52 48
45 48 68 61 65 68 77 81 84 84 90 84 84 90 84 42 52 77 77 81 74 68 55 55 52 48 55 58 68 74 39 6 6 6 10 52 74 74 61 52 48 48 48
35 29 35 48 52 52 68 77 71 71 65 68 52 58 45 23 26 55 74 81 74 74 65 58 61 61 45 13 19 55 16 6 6 3 16 68 81 74 68 45 42 35 45
35 35 35 45 32 32 39 42 52 45 42 32 52 42 32 19 13 23 19 55 52 52 35 32 42 23 13 3 3 0 3 3 3 3 13 84 84 77 71 48 35 35 35
29 42 26 29 26 26 42 45 35 35 35 32 39 39 26 23 10 13 13 16 16 19 3 6 10 16 6 0 0 0 3 0 0 0 13 90 94 77 71 68 52 39 32
23 26 26 32 35 32 32 32 39 42 39 35 35 35 32 23 19 10 10 10 16 6 10 6 6 6 3 3 6 6 6 0 0 0 6 81 87 84 65 58 48 45 42
19 26 29 39 39 32 35 35 29 35 32 42 35 35 32 29 19 13 13 10 13 19 10 3 3 6 6 6 6 10 10 3 3 3 6 39 81 77 71 58 42 45 42
23 23 26 32 35 32 39 35 32 32 29 29 29 32 29 26 23 16 13 10 19 13 6 3 3 6 10 10 6 6 6 6 3 6 6 10 23 71 71 71 55 55 52
29 29 32 55 35 45 32 45 42 32 35 32 29 39 42 23 16 16 23 13 16 16 10 6 3 3 6 6 6 6 0 0 3 6 0 0 0 10 29 55 52 55 58
23 23 29 35 45 45 48 52 45 29 42 39 39 35 35 35 32 29 19 16 16 13 6 10 6 3 3 3 6 0 0 0 0 3 3 0 0 3 0 13 48 55 45
26 26 35 45 42 42 45 39 42 32 32 39 35 39 35 35 35 19 16 19 16 13 10 3 3 0 3 3 3 0 0 0 0 0 0 0 0 0 0 0 16 26 42
35 45 45 48 35 42 52 45 45 35 26 35 39 39 29 26 35 32 32 23 16 13 6 6 6 0 0 0 0 0 0 0 0 0 0 0 0 0 0 0 3 3 0
42 48 52 52 45 45 48 42 45 35 35 35 35 32 35 32 32 42 23 13 10 6 3 0 3 0 0 0 0 0 0 0 0 0 0 0 0 0 0 0 3 0 0
55 45 52 48 55 45 45 45 55 52 48 48 48 42 42 42 42 35 23 13 6 6 3 0 3 6 3 0 0 0 0 0 0 0 0 0 0 0 0 0 0 0 0
52 52 52 48 52 55 52 48 55 52 55 48 48 45 42 39 35 35 19 13 13 10 3 6 3 6 3 6 3 0 0 0 0 0 0 0 0 0 0 0 0 0 0
48 55 52 52 55 55 65 61 52 55 45 45 55 48 39 35 39 29 35 29 6 10 13 6 13 13 10 10 10 3 0 0 0 0 0 0 0 0 0 0 0 0 0
61 58 52 58 55 55 58 58 61 58 52 52 55 52 42 39 39 35 32 26 26 19 19 13 13 16 16 13 6 3 6 0 0 0 0 0 0 0 0 0 0 0 0
Height
5891 5890 5890 5890 5890 5890 5890 5890 5889 5889 5889 5889 5889 5888 5888 5888 5888 5888 5888 5888 5888 5888 5888 5888 5888 5888 5888 5888 5888 5888 5888 5888 5887 5887 5887 5887 5887 5886 5886 5886 5886 5886 5887
5892 5891 5891 5891 5891 5891 5891 5891 5891 5891 5891 5891 5890 5890 5890 5890 5890 5890 5890 5889 5889 5890 5890 5890 5890 5890 5889 5889 5889 5889 5889 5889 5889 5889 5888 5888 5888 5888 5888 5887 5887 5888 5888
5892 5893 5892 5892 5893 5893 5893 5893 5893 5893 5893 5892 5892 5892 5892 5892 5891 5892 5891 5891 5891 5892 5892 5892 5892 5891 5891 5891 5891 5891 5891 5890 5890 5890 5890 5890 5890 5889 5889 5889 5889 5889 5889
5893 5894 5894 5894 5894 5894 5894 5894 5894 5894 5894 5894 5894 5894 5894 5894 5893 5893 5893 5893 5893 5893 5893 5893 5893 5893 5893 5893 5893 5892 5892 5892 5892 5892 5891 5891 5891 5891 5891 5890 5890 5890 5890
5895 5895 5895 5895 5895 5895 5895 5895 5895 5895 5895 5895 5895 5895 5895 5895 5895 5895 5895 5895 5895 5895 5895 5895 5895 5895 5895 5894 5894 5894 5894 5893 5893 5893 5893 5893 5893 5892 5892 5892 5891 5891 5891
5898 5897 5897 5897 5897 5897 5896 5896 5896 5896 5896 5896 5896 5896 5896 5897 5897 5897 5897 5897 5897 5896 5896 5897 5897 5896 5896 5896 5896 5896 5895 5895 5895 5894 5894 5894 5894 5894 5893 5893 5893 5892 5892
5900 5899 5899 5899 5898 5898 5898 5898 5898 5898 5898 5898 5898 5898 5898 5898 5898 5898 5898 5898 5898 5898 5898 5898 5898 5898 5898 5898 5898 5897 5897 5897 5896 5896 5896 5896 5896 5895 5895 5894 5894 5894 5894
5901 5901 5900 5900 5900 5899 5899 5899 5899 5899 5899 5899 5899 5899 5899 5900 5900 5900 5900 5900 5900 5900 5900 5900 5900 5900 5900 5900 5899 5899 5898 5898 5898 5898 5898 5898 5897 5897 5896 5896 5896 5895 5895
5903 5902 5902 5901 5901 5900 5900 5900 5900 5900 5900 5900 5900 5900 5901 5901 5901 5901 5901 5901 5901 5901 5901 5901 5901 5901 5901 5901 5901 5901 5900 5900 5900 5899 5899 5899 5899 5898 5898 5897 5897 5896 5896
5905 5904 5903 5903 5902 5902 5901 5901 5901 5901 5901 5901 5901 5902 5902 5902 5902 5903 5902 5903 5903 5903 5903 5903 5903 5903 5903 5903 5902 5902 5902 5902 5901 5901 5901 5900 5900 5899 5899 5898 5898 5898 5897
5906 5905 5905 5904 5903 5903 5903 5902 5902 5902 5902 5902 5903 5903 5903 5903 5903 5904 5904 5904 5904 5904 5904 5904 5904 5904 5904 5904 5904 5904 5904 5903 5903 5903 5902 5902 5901 5901 5900 5900 5899 5899 5898
5908 5907 5906 5905 5905 5904 5904 5904 5904 5904 5904 5904 5904 5904 5904 5904 5905 5905 5905 5905 5905 5905 5905 5905 5905 5905 5905 5905 5905 5905 5905 5905 5904 5904 5904 5903 5902 5902 5901 5901 5900 5900 5899
5910 5909 5908 5907 5906 5906 5906 5905 5905 5905 5905 5905 5905 5905 5905 5906 5906 5906 5906 5906 5906 5906 5906 5906 5906 5906 5906 5906 5906 5906 5906 5906 5905 5905 5905 5904 5904 5903 5902 5902 5901 5901 5900
5912 5911 5910 5909 5908 5908 5907 5906 5906 5906 5907 5907 5907 5907 5907 5907 5907 5907 5907 5907 5907 5907 5907 5907 5907 5907 5908 5908 5907 5907 5907 5907 5906 5906 5906 5905 5904 5904 5903 5903 5902 5901 5901
5915 5913 5912 5911 5910 5909 5908 5907 5907 5907 5908 5908 5908 5908 5908 5908 5908 5908 5908 5908 5908 5908 5908 5908 5908 5908 5908 5908 5908 5908 5908 5908 5907 5906 5906 5905 5904 5904 5903 5903 5902 5902 5901
5917 5916 5914 5913 5912 5910 5909 5909 5908 5909 5909 5909 5909 5908 5909 5909 5908 5909 5909 5909 5909 5909 5908 5909 5909 5909 5909 5909 5909 5909 5908 5908 5907 5907 5906 5905 5905 5904 5903 5903 5902 5901 5901
5920 5918 5917 5915 5914 5912 5911 5910 5910 5910 5910 5910 5909 5909 5909 5909 5909 5909 5909 5909 5909 5909 5909 5909 5909 5909 5909 5909 5909 5909 5908 5908 5907 5907 5906 5905 5905 5904 5903 5902 5902 5901 5900
5922 5921 5919 5917 5916 5914 5913 5912 5911 5911 5910 5911 5910 5910 5910 5910 5909 5909 5909 5909 5909 5909 5909 5909 5909 5909 5909 5909 5909 5908 5908 5907 5907 5906 5906 5905 5904 5903 5902 5902 5901 5900 5899
5925 5923 5921 5920 5918 5916 5915 5914 5913 5912 5912 5911 5911 5911 5910 5910 5910 5909 5909 5909 5909 5908 5908 5908 5908 5908 5908 5908 5908 5908 5907 5907 5906 5905 5905 5904 5903 5902 5901 5900 5899 5898 5897
5927 5925 5923 5922 5920 5918 5917 5915 5914 5914 5913 5913 5912 5911 5911 5910 5910 5909 5909 5909 5908 5908 5908 5907 5907 5907 5907 5907 5907 5907 5906 5906 5905 5904 5903 5902 5901 5900 5899 5898 5897 5896 5895
5929 5927 5926 5924 5922 5920 5919 5917 5916 5915 5915 5914 5913 5912 5911 5910 5910 5909 5909 5908 5908 5907 5907 5906 5906 5906 5906 5906 5905 5905 5905 5904 5904 5903 5902 5901 5900 5899 5897 5896 5895 5894 5893
5931 5929 5927 5926 5924 5922 5920 5919 5918 5916 5915 5914 5913 5912 5911 5910 5909 5909 5908 5908 5907 5907 5906 5906 5905 5905 5905 5904 5904 5903 5903 5903 5902 5901 5900 5899 5898 5897 5895 5894 5893 5892 5891
5933 5931 5929 5927 5925 5924 5922 5920 5919 5917 5916 5915 5914 5912 5911 5910 5909 5909 5908 5907 5907 5906 5906 5905 5904 5904 5903 5903 5902 5902 5901 5900 5900 5899 5898 5897 5895 5894 5893 5892 5891 5889 5888
5934 5932 5930 5929 5927 5925 5923 5921 5919 5918 5916 5915 5913 5912 5911 5910 5909 5908 5907 5906 5906 5905 5904 5903 5903 5902 5901 5901 5900 5900 5899 5898 5897 5897 5896 5894 5893 5892 5891 5889 5888 5887 5885
5935 5933 5931 5929 5928 5926 5924 5922 5920 5918 5916 5915 5913 5912 5910 5909 5908 5907 5905 5904 5904 5903 5902 5901 5901 5900 5899 5898 5898 5897 5896 5896 5895 5894 5893 5892 5891 5889 5888 5887 5885 5884 5882
5935 5933 5931 5929 5928 5926 5924 5922 5920 5918 5916 5914 5913 5911 5909 5908 5906 5905 5904 5903 5902 5901 5901 5900 5899 5898 5897 5896 5895 5894 5893 5893 5892 5891 5890 5889 5888 5886 5885 5883 5882 5880 5879
Wind_Speed
13 12 12 12 12 11 10 9 9 9 8 9 9 9 10 10 11 11 12 12 11 11 12 12 12 12 12 12 12 11 11 11 10 10 10 10 10 9 9 9 9 8 8
12 12 11 11 12 11 11 10 9 8 8 8 8 9 9 11 11 11 11 11 11 11 12 12 12 12 12 12 11 11 11 11 10 10 10 10 10 10 10 9 9 9 8
11 11 11 11 11 10 10 10 9 8 8 8 8 8 9 10 10 11 11 11 11 11 11 12 12 12 12 12 11 11 10 10 10 10 10 10 10 10 10 9 9 8 8
11 10 11 10 10 10 9 9 9 8 8 8 8 8 8 9 10 10 10 11 11 11 11 12 12 12 12 11 11 11 10 10 10 10 10 11 10 10 9 9 9 8 8
11 11 10 10 9 9 9 9 9 8 7 7 7 7 8 8 9 9 10 10 11 11 11 12 12 12 11 11 11 11 10 11 10 10 10 10 10 9 9 9 9 9 9
12 11 11 11 9 9 9 8 9 9 8 7 7 7 8 8 9 9 10 10 10 11 11 11 11 11 11 11 11 10 10 11 11 10 10 10 10 9 9 9 9 9 9
13 11 10 10 9 9 8 9 9 9 8 7 8 8 8 8 9 9 9 9 10 11 11 11 11 11 11 11 10 10 10 10 10 10 10 9 9 9 9 9 9 9 9
13 12 10 10 9 8 8 8 8 8 8 8 7 8 8 8 8 8 8 8 9 10 10 10 10 10 10 10 10 9 9 9 9 9 9 9 9 9 9 9 8 8 9
12 11 10 10 9 8 8 8 7 7 8 8 8 8 8 7 8 7 7 8 8 9 9 9 9 9 9 9 9 9 9 9 9 9 9 8 8 9 8 8 8 8 8
13 12 11 10 10 10 9 8 8 8 8 8 8 7 7 7 7 6 7 7 7 8 8 8 8 9 9 9 8 8 8 9 8 8 9 8 8 8 8 8 7 7 6
14 12 11 10 10 10 10 9 8 8 8 8 7 7 7 7 6 6 7 7 7 7 7 7 8 8 8 8 8 8 8 8 8 8 8 7 7 7 7 7 7 6 6
14 13 11 10 10 10 9 9 8 8 8 7 7 7 7 7 6 6 6 6 6 6 6 7 7 7 7 7 7 7 7 7 7 7 7 7 7 7 6 6 6 5 5
15 13 12 12 11 10 10 9 9 8 8 8 8 8 7 7 6 6 6 5 6 6 6 6 6 6 6 6 6 5 5 6 5 5 5 6 6 6 5 5 4 4 4
15 14 12 13 12 10 10 10 9 7 7 7 7 7 7 6 6 6 6 5 6 6 5 5 5 5 5 5 4 4 3 4 3 3 3 4 4 4 4 4 4 4 4
16 15 14 14 13 12 11 11 9 7 7 7 6 6 6 6 5 5 5 5 5 5 4 4 4 4 4 3 3 2 2 2 2 2 2 2 2 2 3 3 3 3 3
17 16 15 14 13 13 11 11 10 8 7 7 6 6 6 6 5 5 5 5 4 4 3 3 3 2 2 2 2 1 1 1 1 1 1 2 2 2 2 2 2 2 3
17 16 16 15 14 13 12 11 10 8 8 7 7 6 5 5 5 4 3 3 4 3 3 2 2 2 2 2 1 1 1 2 2 2 2 3 2 3 3 3 3 3 3
18 17 16 16 15 13 12 11 10 8 8 7 6 6 5 5 4 3 3 3 3 2 2 2 2 2 2 2 2 2 2 3 3 3 4 4 4 5 5 5 5 5 5
17 17 17 17 16 14 13 12 11 9 8 7 6 6 5 4 3 3 2 2 2 1 1 2 2 3 3 3 3 3 3 4 4 5 5 5 6 6 7 7 7 7 7
17 17 16 16 15 14 13 12 11 10 8 7 6 5 4 3 3 2 2 1 1 2 2 2 2 3 4 4 4 5 5 5 6 6 7 7 8 8 9 8 8 9 9
16 16 16 15 15 14 13 12 11 10 9 7 6 5 4 3 2 2 1 1 1 2 2 2 2 3 4 5 5 6 7 7 8 9 9 9 8 9 9 9 9 10 10
15 15 15 15 15 14 13 11 9 8 8 7 6 5 5 3 2 1 1 1 1 1 2 3 3 4 5 5 6 7 8 8 9 9 9 9 9 10 9 9 10 10 10
14 14 14 13 13 13 12 11 10 8 7 6 6 6 5 4 3 2 2 2 2 2 3 4 5 5 5 6 7 8 8 9 8 8 9 10 11 11 10 10 11 12 12
14 14 13 12 12 12 12 11 10 9 8 7 6 6 5 4 4 3 4 3 3 4 4 5 5 6 6 7 7 8 8 9 9 9 9 10 11 11 12 12 13 14 14
13 12 12 11 11 11 11 10 10 9 8 8 7 6 6 5 5 4 4 5 5 5 5 6 6 7 7 8 8 9 9 10 9 9 9 10 11 11 12 13 13 14 14
11 11 11 11 11 11 10 10 9 9 8 8 8 7 7 7 6 6 5 5 5 6 6 7 7 8 8 9 9 9 9 10 10 9 10 11 12 12 13 13 14 15 15
Wind_Direction
63 67 66 65 69 68 68 71 75 74 83 90 94 96 96 100 105 104 104 102 105 104 101 100 99 99 99 99 97 96 95 94 93 92 93 92 91 93 95 95 98 102 105
65 66 68 70 70 69 69 71 77 80 83 87 90 93 95 102 104 104 103 103 101 101 100 99 98 98 99 98 97 96 95 94 92 90 90 90 90 93 94 93 97 99 101
67 67 70 73 72 72 72 72 75 81 84 88 90 93 97 101 105 105 104 103 103 102 100 98 98 97 98 97 97 96 94 91 89 89 90 90 90 92 94 94 97 98 100
67 68 72 71 71 72 72 74 78 80 83 88 91 94 98 101 104 107 105 103 104 104 102 99 97 96 96 95 96 93 92 90 90 90 91 91 90 92 94 95 96 99 101
66 69 71 67 67 69 69 76 81 78 78 83 89 94 99 102 106 107 109 105 104 103 101 99 97 96 94 94 94 91 89 88 87 87 89 91 91 92 94 94 95 97 101
65 69 68 67 65 68 68 75 79 76 78 80 86 89 94 102 104 106 110 108 105 105 101 98 97 95 93 93 91 88 86 87 85 86 88 88 90 89 90 90 93 96 96
63 65 67 67 64 65 69 74 78 77 79 83 92 92 93 98 100 105 108 107 105 105 102 100 97 96 93 92 89 87 84 85 85 88 88 87 89 88 89 90 92 95 95
60 62 65 64 63 66 72 76 79 80 85 89 96 97 99 100 103 105 103 104 103 103 103 101 99 98 96 93 90 88 85 83 85 88 88 87 85 85 87 90 93 95 96
55 58 62 63 64 68 78 80 79 84 89 92 96 100 103 102 104 105 104 106 103 103 102 101 100 98 97 95 91 89 89 84 86 89 90 88 84 83 86 89 92 95 96
52 56 59 62 66 71 78 80 82 87 93 96 99 102 105 106 109 108 107 108 105 105 103 102 102 99 97 96 91 86 84 81 81 88 91 88 83 82 82 84 86 90 92
51 54 58 66 69 71 74 77 82 87 93 98 104 108 107 109 113 116 114 114 110 107 104 101 100 100 99 97 91 86 83 82 77 85 88 85 81 80 79 80 82 83 85
52 56 59 69 70 71 71 75 82 88 91 93 102 110 110 110 114 119 119 115 116 115 110 107 103 100 100 99 93 88 85 84 79 82 83 82 78 75 74 74 76 79 80
54 58 62 67 70 70 70 77 82 87 90 93 98 105 109 111 116 123 123 122 123 122 118 112 109 106 103 100 94 91 89 82 75 77 78 78 75 72 66 62 62 64 64
53 54 63 64 69 71 70 76 82 87 91 98 99 98 102 107 109 116 121 122 125 125 125 121 114 113 107 103 99 95 94 80 73 71 72 71 70 69 63 54 51 49 44
53 54 57 59 63 66 68 72 75 83 91 98 103 102 104 105 105 109 112 118 123 126 124 123 115 113 107 106 105 97 86 75 57 59 53 47 49 52 50 43 34 27 23
51 50 54 56 58 61 64 68 71 81 89 96 97 97 99 102 101 108 114 120 125 128 127 133 132 119 126 134 125 111 70 1 23 17 9 359 1 8 10 359 352 349 351
50 50 53 54 55 55 59 66 71 79 88 94 94 97 98 96 93 99 116 131 134 136 147 167 179 181 184 183 195 234 290 307 305 311 326 323 326 324 319 317 312 310 311
47 49 51 50 51 53 58 63 67 71 80 87 90 92 95 102 99 99 121 146 153 159 183 197 201 209 225 236 244 259 283 297 302 303 311 315 311 306 301 301 296 297 297
42 44 47 47 48 52 56 58 62 67 76 80 79 78 85 93 99 98 115 150 169 188 211 235 230 229 241 253 262 275 281 289 297 296 294 296 299 299 296 293 291 288 290
41 42 44 45 45 49 53 56 59 63 70 74 70 68 73 81 94 98 92 139 227 233 227 243 246 249 254 258 261 266 272 275 281 287 287 288 291 292 292 292 293 291 291
39 40 41 42 42 43 46 51 55 58 60 61 61 58 58 60 77 80 48 10 273 255 244 246 247 247 258 268 266 266 270 275 278 280 283 284 288 291 293 294 297 295 290
34 35 37 39 39 39 40 43 47 49 49 47 45 41 44 44 47 46 3 357 329 290 266 267 269 261 265 271 271 268 271 276 280 282 284 282 282 286 291 295 297 295 293
28 30 30 33 33 33 33 36 37 38 36 32 26 22 15 13 16 13 355 327 310 300 289 283 278 278 276 278 275 271 274 277 280 283 281 281 282 285 289 293 294 293 294
21 21 23 25 26 27 29 30 30 30 29 25 18 14 9 1 352 342 336 324 307 301 302 296 284 280 282 283 277 273 276 279 281 284 285 285 285 285 287 289 290 289 291
14 14 17 18 19 20 22 25 25 22 18 16 12 6 1 353 339 328 322 323 317 307 306 302 298 291 289 287 281 277 274 276 277 281 286 286 287 287 286 288 292 294 293
3 5 6 8 7 8 8 9 9 11 10 6 2 354 351 352 346 329 310 311 315 311 308 305 298 293 290 289 283 280 277 276 277 280 285 289 292 291 292 293 294 294 293